Location: Oberwangen
(47.4286°N, 8.9679°E)
Time: 15:22:37
(UTC+00:00)

Cosmos 1975 Rocket - Pass Details

Date: 20 June 2021
Orbit: 603 x 634 km, 82.5° (Epoch: 02 August)

Event Time Altitude Azimuth Distance (km) Brightness Sun altitude
Rises 20:48:21 0° 206° (SSW) 2,864 6.2 -10.8°
Reaches altitude 10° 20:50:38 10° 213° (SSW) 1,969 5.4 -11.0°
Maximum altitude 20:54:47 42° 285° (WNW) 891 4.3 -11.4°
Drops below altitude 10° 20:59:00 10° 357° (N) 2,003 6.7 -11.8°
Sets 21:01:21 0° 4° (N) 2,919 7.4 -12.0°
